Panama City, FL

8:54 PM CDT on March 26, 2017 (GMT -0500)
Northwest Florida Beaches International

Weather History for KECP - November, 2013

Change the Weather History Date:

Thursday, November 7, 2013

  Actual Average Record
Temperature  
Mean Temperature 63 °F -  
Max Temperature 76 °F - 85 °F (2015)
Min Temperature 49 °F - 33 °F (2010)
Degree Days  
Heating Degree Days 2    
Cooling Degree Days 0    
Growing Degree Days 14 (Base 50)    
Moisture  
Dew Point 62 °F    
Average Humidity 86    
Maximum Humidity 100    
Minimum Humidity 71    
Precipitation  
Precipitation 0.23 in - 0.59 in (2015)
Month to date precipitation  
Year to date precipitation  
Sea Level Pressure  
Sea Level Pressure 30.10 in    
Wind  
Wind Speed 5 mph (NNW)    
Max Wind Speed 23 mph    
Max Gust Speed 48 mph    
Visibility 7 miles    
Events Fog , Rain    
T = Trace of Precipitation, MM = Missing Value Source: NWS Daily Summary

Daily Weather History Graph

Daily Weather History Graph

Search for Another Location

Airport or City:

Trip Planner

Search our weather history database for the weather conditions in past years. The results will help you decide how hot, cold, wet, or windy it might be!

Date:

Astronomy

Nov. 07, 2013 Rise Set
Actual Time 7:02 AM EST 5:50 PM EST
Civil Twilight 6:37 AM EST 6:15 PM EST
Nautical Twilight 6:08 AM EST 6:44 PM EST
Astronomical Twilight 5:40 AM EST 7:12 PM EST
Moon 11:06 AM EST (11/7) 10:04 PM EST (11/7)
Length of Visible Light 11h 38m
Length of Day
10h 48m
Waxing Crescent, 22% of the Moon is Illuminated
Nov 7
Waxing Crescent
Nov 10
First Quarter
Nov 17
Full
Nov 25
Last Quarter
Dec 2
New

Hourly Weather History & Observations

Time (EST) Temp. Dew Point Humidity Pressure Visibility Wind Dir Wind Speed Gust Speed Precip Events Conditions
12:53 AM 66.9 °F 66.0 °F 97% 30.11 in 9.0 mi Calm Calm - N/A   Clear
1:53 AM 64.9 °F 64.9 °F 100% 30.11 in 7.0 mi Calm Calm - N/A   Clear
2:53 AM 64.9 °F 64.9 °F 100% 30.09 in 8.0 mi NE 3.5 mph - N/A   Clear
3:53 AM 64.0 °F 64.0 °F 100% 30.08 in 6.0 mi Calm Calm - N/A   Clear
4:15 AM 64.4 °F 64.4 °F 100% 30.04 in 1.8 mi Calm Calm - N/A   Clear
4:34 AM 62.6 °F 62.6 °F 100% 30.04 in 0.5 mi Calm Calm - N/A Fog Fog
4:42 AM 62.6 °F 62.6 °F 100% 30.04 in 1.5 mi Calm Calm - N/A   Partly Cloudy
4:45 AM 60.8 °F 60.8 °F 100% 30.04 in 0.8 mi Calm Calm - N/A   Mist
4:53 AM 61.0 °F 61.0 °F 100% 30.08 in 1.0 mi NW 3.5 mph - N/A   Mist
4:56 AM 60.8 °F 60.8 °F 100% 30.04 in 2.0 mi NW 4.6 mph - N/A   Partly Cloudy
5:03 AM 62.6 °F 62.6 °F 100% 30.04 in 3.0 mi NW 4.6 mph - N/A   Clear
5:10 AM 62.6 °F 62.6 °F 100% 30.04 in 2.0 mi Calm Calm - N/A   Clear
5:19 AM 62.6 °F 62.6 °F 100% 30.04 in 5.0 mi Calm Calm - N/A   Clear
5:53 AM 62.1 °F 62.1 °F 100% 30.08 in 5.0 mi Calm Calm - N/A   Mostly Cloudy
6:53 AM 61.0 °F 61.0 °F 100% 30.09 in 7.0 mi Calm Calm - N/A   Clear
7:53 AM 64.9 °F 64.9 °F 100% 30.10 in 5.0 mi Calm Calm - N/A   Mostly Cloudy
8:53 AM 68.0 °F 68.0 °F 100% 30.11 in 8.0 mi Calm Calm - N/A   Scattered Clouds
9:53 AM 73.0 °F 68.0 °F 84% 30.12 in 10.0 mi ESE 3.5 mph - N/A   Overcast
10:53 AM 75.0 °F 68.0 °F 79% 30.12 in 10.0 mi SSE 3.5 mph - N/A   Overcast
11:53 AM 73.9 °F 71.1 °F 91% 30.10 in 10.0 mi North 4.6 mph - 0.00 in   Overcast
11:57 AM 73.4 °F 71.6 °F 94% 30.07 in 12.0 mi NW 6.9 mph - N/A Rain Light Rain
12:08 PM 71.6 °F 71.6 °F 100% 30.07 in 0.5 mi NNW 15.0 mph 23.0 mph 0.11 in Fog , Rain Heavy Rain
12:18 PM 69.8 °F 69.8 °F 100% 30.07 in 1.0 mi NNW 11.5 mph - 0.20 in Rain Heavy Rain
12:34 PM 68.0 °F 68.0 °F 100% 30.07 in 3.0 mi NNW 23.0 mph 29.9 mph 0.23 in Rain Light Rain
12:53 PM 66.9 °F 66.9 °F 100% 30.11 in 5.0 mi NNW 23.0 mph 29.9 mph 0.23 in   Overcast
1:00 PM 66.2 °F 66.2 °F 100% 30.07 in 4.0 mi NNW 16.1 mph 31.1 mph N/A   Overcast
1:32 PM 66.2 °F 66.2 °F 100% 30.06 in 10.0 mi North 15.0 mph - N/A   Overcast
1:53 PM 68.0 °F 66.9 °F 96% 30.09 in 10.0 mi North 12.7 mph - N/A   Overcast
2:53 PM 70.0 °F 66.0 °F 87% 30.08 in 10.0 mi North 12.7 mph - N/A   Overcast
3:53 PM 69.1 °F 64.0 °F 84% 30.08 in 10.0 mi North 13.8 mph 20.7 mph N/A   Mostly Cloudy
4:53 PM 66.9 °F 61.0 °F 81% 30.11 in 10.0 mi NNW 15.0 mph 20.7 mph N/A   Mostly Cloudy
5:53 PM 61.0 °F 57.9 °F 90% 30.13 in 10.0 mi NW 13.8 mph - N/A   Scattered Clouds
6:03 PM 60.8 °F 57.2 °F 88% 30.11 in 10.0 mi NW 10.4 mph 21.9 mph N/A   Partly Cloudy
6:53 PM 57.9 °F 53.1 °F 84% 30.16 in 10.0 mi NW 11.5 mph - N/A   Clear
7:53 PM 55.0 °F 53.1 °F 93% 30.18 in 10.0 mi NNW 9.2 mph - N/A   Clear
8:53 PM 54.0 °F 50.0 °F 86% 30.19 in 10.0 mi NNW 11.5 mph - N/A   Clear
9:53 PM 53.1 °F 48.0 °F 83% 30.19 in 10.0 mi NNW 12.7 mph - N/A   Clear
10:53 PM 52.0 °F 46.0 °F 80% 30.21 in 10.0 mi NNW 12.7 mph - N/A   Clear
11:53 PM 51.1 °F 43.0 °F 74% 30.22 in 10.0 mi NNW 12.7 mph 20.7 mph N/A   Clear